Tracking 20712 objects as of 29-May-2020
HD Live streaming from Space Station
objects crossing your sky now

FENGYUN 1C DEB

Track FENGYUN 1C DEB now!
10-day predictions


NORAD ID: 36710
Int'l Code: 1999-025EAG
Perigee: 727.5 km
Apogee: 856.5 km
Inclination: 98.6 °
Period: 100.6 minutes
Semi major axis: 7163 km
RCS: 0.0087 m2 (small)
Launch date: May 10, 1999
Source: People's Republic of China (PRC)
Launch site: Taiyaun Space Center, China (TSC)

Note: This is SATELLITE DEBRIS
aabbcc
Your satellite tracking list
Your tracking list is empty




NASA's NSSDC Master Catalog

Two Line Element Set (TLE):
1 36710U 99025EAG 20150.41278025  .00000376  00000-0  14923-3 0  9997
2 36710  98.5699 209.1917 0090022 100.6164 260.5174 14.32049620613135
Source of the keplerian elements: AFSPC